QPF
0.19 0.17 0.14 0.09 0.10 0.11 0.13 0.16 0.15 0.16 0.17 0.15 0.24 0.22 0.15 0.12 0.12 0.12 0.12 0.11 0.10 0.13 0.15 0.14 0.11 0.11 0.11 0.13 0.13 0.12 0.09 0.07 0.05 0.05 0.06 0.06 0.06 0.04 0.04 0.05 0.05 0.05 0.04
0.19 0.17 0.16 0.11 0.13 0.13 0.12 0.13 0.11 0.13 0.15 0.16 0.25 0.18 0.13 0.12 0.11 0.11 0.16 0.18 0.18 0.17 0.17 0.13 0.11 0.11 0.12 0.12 0.10 0.10 0.08 0.05 0.04 0.05 0.06 0.06 0.07 0.06 0.06 0.07 0.10 0.07 0.05
0.15 0.14 0.12 0.12 0.14 0.16 0.13 0.13 0.13 0.13 0.13 0.16 0.19 0.14 0.11 0.11 0.09 0.08 0.14 0.16 0.16 0.14 0.14 0.13 0.12 0.13 0.13 0.11 0.09 0.09 0.07 0.04 0.04 0.05 0.09 0.10 0.07 0.07 0.06 0.07 0.07 0.06 0.05
0.09 0.09 0.09 0.12 0.12 0.16 0.18 0.16 0.15 0.15 0.14 0.15 0.16 0.14 0.12 0.12 0.09 0.08 0.10 0.13 0.13 0.12 0.11 0.10 0.12 0.11 0.10 0.08 0.08 0.08 0.05 0.05 0.05 0.07 0.12 0.12 0.10 0.07 0.08 0.08 0.05 0.05 0.04
0.06 0.07 0.07 0.11 0.12 0.14 0.18 0.17 0.18 0.18 0.18 0.18 0.16 0.15 0.12 0.11 0.09 0.08 0.09 0.11 0.12 0.12 0.11 0.12 0.11 0.10 0.09 0.07 0.07 0.06 0.05 0.05 0.08 0.09 0.10 0.10 0.10 0.08 0.09 0.08 0.06 0.05 0.03
0.05 0.05 0.04 0.07 0.09 0.11 0.17 0.18 0.21 0.22 0.24 0.22 0.17 0.15 0.13 0.12 0.10 0.09 0.09 0.11 0.12 0.13 0.12 0.11 0.09 0.08 0.05 0.05 0.05 0.05 0.06 0.09 0.10 0.10 0.11 0.08 0.08 0.07 0.08 0.07 0.06 0.05 0.03
0.04 0.05 0.04 0.05 0.08 0.12 0.16 0.21 0.20 0.24 0.28 0.24 0.20 0.15 0.13 0.11 0.11 0.11 0.09 0.11 0.13 0.13 0.12 0.09 0.07 0.07 0.04 0.04 0.03 0.03 0.04 0.08 0.11 0.09 0.09 0.09 0.07 0.07 0.08 0.07 0.06 0.06 0.05
0.02 0.05 0.03 0.03 0.06 0.09 0.14 0.21 0.24 0.26 0.25 0.20 0.17 0.17 0.15 0.13 0.14 0.14 0.13 0.14 0.14 0.12 0.11 0.08 0.05 0.05 0.04 0.03 0.02 0.02 0.03 0.05 0.06 0.07 0.09 0.11 0.08 0.06 0.07 0.07 0.05 0.04 0.04
0.02 0.03 0.04 0.05 0.04 0.06 0.13 0.24 0.30 0.26 0.21 0.16 0.14 0.18 0.20 0.20 0.19 0.16 0.15 0.15 0.12 0.11 0.08 0.06 0.04 0.04 0.03 0.02 0.01 0.01 0.02 0.03 0.03 0.05 0.07 0.12 0.11 0.06 0.06 0.06 0.04 0.03 0.03
0.01 0.02 0.04 0.05 0.06 0.08 0.12 0.19 0.24 0.26 0.23 0.19 0.16 0.15 0.18 0.20 0.20 0.16 0.13 0.11 0.09 0.07 0.05 0.04 0.03 0.03 0.02 0.01 0.01 0.01 0.01 0.02 0.03 0.05 0.06 0.09 0.06 0.04 0.05 0.04 0.04 0.04 0.03
0.00 0.01 0.03 0.03 0.03 0.04 0.06 0.10 0.14 0.18 0.21 0.22 0.18 0.13 0.14 0.15 0.14 0.10 0.07 0.07 0.07 0.05 0.04 0.04 0.03 0.02 0.01 0.01 0.01 0.01 0.01 0.03 0.05 0.04 0.07 0.06 0.04 0.05 0.05 0.04 0.04 0.04 0.03
0.00 0.01 0.02 0.02 0.02 0.03 0.04 0.06 0.08 0.08 0.11 0.13 0.10 0.09 0.09 0.08 0.08 0.07 0.06 0.05 0.05 0.04 0.04 0.03 0.03 0.02 0.02 0.04 0.03 0.02 0.03 0.04 0.05 0.05 0.05 0.04 0.05 0.05 0.05 0.05 0.04 0.03 0.03
0.02 0.01 0.02 0.02 0.03 0.02 0.03 0.03 0.04 0.06 0.08 0.08 0.07 0.06 0.05 0.04 0.04 0.05 0.06 0.05 0.05 0.04 0.05 0.04 0.04 0.04 0.03 0.04 0.05 0.03 0.04 0.05 0.06 0.05 0.04 0.04 0.05 0.05 0.04 0.05 0.04 0.03 0.02
0.01 0.01 0.01 0.02 0.03 0.03 0.02 0.02 0.02 0.03 0.03 0.04 0.05 0.04 0.04 0.04 0.04 0.05 0.06 0.05 0.05 0.06 0.06 0.06 0.07 0.06 0.03 0.02 0.02 0.02 0.04 0.04 0.05 0.06 0.06 0.04 0.03 0.04 0.05 0.05 0.06 0.04 0.02
0.01 0.01 0.01 0.01 0.02 0.04 0.04 0.05 0.03 0.03 0.03 0.03 0.03 0.03 0.03 0.04 0.06 0.07 0.06 0.06 0.04 0.04 0.06 0.08 0.07 0.06 0.04 0.03 0.03 0.02 0.05 0.04 0.04 0.06 0.06 0.05 0.03 0.05 0.06 0.07 0.07 0.06 0.04
0.01 0.01 0.01 0.01 0.02 0.03 0.05 0.05 0.04 0.03 0.04 0.03 0.03 0.03 0.03 0.04 0.06 0.06 0.05 0.07 0.05 0.05 0.06 0.07 0.06 0.05 0.05 0.05 0.05 0.04 0.09 0.09 0.06 0.06 0.08 0.07 0.05 0.05 0.06 0.07 0.07 0.07 0.06
0.01 0.01 0.01 0.01 0.01 0.03 0.05 0.06 0.05 0.03 0.03 0.03 0.05 0.05 0.04 0.03 0.05 0.06 0.05 0.06 0.05 0.04 0.04 0.05 0.06 0.06 0.06 0.06 0.07 0.07 0.12 0.14 0.09 0.09 0.11 0.11 0.10 0.08 0.07 0.07 0.08 0.08 0.08
0.00 0.01 0.01 0.01 0.01 0.02 0.04 0.05 0.05 0.04 0.04 0.04 0.05 0.06 0.05 0.05 0.06 0.08 0.06 0.06 0.06 0.04 0.04 0.07 0.09 0.08 0.09 0.09 0.10 0.09 0.13 0.15 0.15 0.14 0.14 0.15 0.16 0.14 0.11 0.08 0.07 0.07 0.09
0.00 0.00 0.01 0.02 0.02 0.02 0.02 0.04 0.04 0.04 0.04 0.04 0.04 0.05 0.05 0.05 0.06 0.07 0.08 0.07 0.06 0.06 0.05 0.04 0.09 0.09 0.10 0.10 0.07 0.07 0.11 0.13 0.15 0.13 0.14 0.17 0.18 0.18 0.16 0.13 0.09 0.08 0.09
0.00 0.01 0.01 0.02 0.02 0.03 0.03 0.05 0.05 0.03 0.04 0.05 0.04 0.05 0.05 0.04 0.04 0.05 0.07 0.06 0.07 0.08 0.09 0.09 0.12 0.11 0.11 0.10 0.07 0.08 0.10 0.10 0.10 0.09 0.11 0.15 0.17 0.15 0.16 0.16 0.15 0.12 0.10
0.00 0.01 0.01 0.01 0.02 0.03 0.05 0.05 0.05 0.05 0.05 0.04 0.03 0.03 0.05 0.03 0.02 0.04 0.06 0.07 0.07 0.09 0.10 0.11 0.13 0.14 0.12 0.12 0.13 0.13 0.09 0.10 0.09 0.08 0.09 0.11 0.13 0.12 0.14 0.19 0.19 0.17 0.17
0.00 0.01 0.01 0.02 0.02 0.02 0.04 0.04 0.04 0.04 0.04 0.03 0.02 0.03 0.04 0.03 0.02 0.02 0.05 0.08 0.08 0.10 0.10 0.11 0.13 0.16 0.14 0.15 0.16 0.17 0.14 0.15 0.13 0.09 0.09 0.09 0.10 0.10 0.10 0.12 0.14 0.18 0.25
0.01 0.01 0.02 0.02 0.03 0.02 0.03 0.04 0.04 0.03 0.03 0.04 0.03 0.03 0.03 0.04 0.04 0.03 0.04 0.05 0.07 0.08 0.09 0.11 0.12 0.14 0.15 0.14 0.13 0.16 0.18 0.19 0.17 0.13 0.12 0.12 0.12 0.12 0.11 0.13 0.11 0.13 0.20
0.00 0.01 0.02 0.02 0.03 0.02 0.03 0.04 0.03 0.03 0.04 0.03 0.03 0.02 0.02 0.02 0.02 0.04 0.04 0.05 0.06 0.07 0.08 0.08 0.10 0.12 0.14 0.13 0.12 0.13 0.14 0.17 0.17 0.15 0.15 0.12 0.13 0.12 0.12 0.11 0.12 0.14 0.16
0.00 0.00 0.01 0.02 0.02 0.03 0.03 0.03 0.03 0.03 0.03 0.02 0.02 0.03 0.02 0.02 0.01 0.02 0.04 0.06 0.05 0.05 0.06 0.07 0.10 0.09 0.11 0.11 0.12 0.13 0.13 0.14 0.13 0.14 0.16 0.14 0.13 0.10 0.10 0.10 0.13 0.16 0.16
0.00 0.00 0.01 0.01 0.01 0.02 0.02 0.02 0.02 0.03 0.03 0.03 0.04 0.04 0.04 0.02 0.02 0.01 0.02 0.06 0.06 0.06 0.06 0.06 0.07 0.08 0.10 0.10 0.10 0.10 0.11 0.12 0.12 0.13 0.17 0.18 0.16 0.12 0.12 0.11 0.13 0.13 0.14
MSLP
1008.51 1008.03 1007.60 1007.28 1007.08 1006.94 1006.82 1006.64 1006.38 1006.05 1005.70 1005.44 1005.33 1005.47 1005.87 1006.50 1007.29 1008.15 1008.97 1009.67 1010.22 1010.62 1010.91 1011.14 1011.36 1011.61 1011.89 1012.20 1012.52 1012.81 1013.09 1013.34 1013.58 1013.85 1014.15 1014.48 1014.83 1015.18 1015.50 1015.77 1015.99 1016.16 1016.31
1008.85 1008.49 1008.20 1008.02 1007.95 1007.92 1007.88 1007.75 1007.53 1007.22 1006.91 1006.66 1006.58 1006.73 1007.11 1007.69 1008.40 1009.14 1009.82 1010.38 1010.81 1011.11 1011.34 1011.54 1011.77 1012.03 1012.33 1012.65 1012.96 1013.24 1013.49 1013.73 1013.97 1014.25 1014.56 1014.92 1015.29 1015.64 1015.96 1016.21 1016.40 1016.54 1016.66
1009.08 1008.81 1008.62 1008.56 1008.60 1008.67 1008.72 1008.68 1008.53 1008.30 1008.05 1007.86 1007.83 1007.99 1008.34 1008.85 1009.45 1010.04 1010.57 1010.98 1011.28 1011.51 1011.70 1011.90 1012.14 1012.44 1012.76 1013.09 1013.40 1013.67 1013.90 1014.12 1014.36 1014.64 1014.98 1015.35 1015.74 1016.11 1016.41 1016.65 1016.81 1016.92 1017.03
1009.19 1008.98 1008.88 1008.91 1009.05 1009.23 1009.37 1009.43 1009.38 1009.24 1009.08 1008.98 1009.00 1009.16 1009.49 1009.92 1010.39 1010.84 1011.22 1011.50 1011.71 1011.88 1012.06 1012.28 1012.56 1012.89 1013.24 1013.58 1013.87 1014.10 1014.30 1014.50 1014.73 1015.01 1015.37 1015.76 1016.17 1016.54 1016.85 1017.06 1017.20 1017.30 1017.39
1009.21 1009.05 1009.02 1009.14 1009.37 1009.64 1009.88 1010.03 1010.08 1010.05 1009.99 1009.97 1010.03 1010.21 1010.50 1010.85 1011.22 1011.55 1011.81 1012.00 1012.15 1012.30 1012.50 1012.76 1013.08 1013.44 1013.80 1014.11 1014.36 1014.54 1014.69 1014.85 1015.06 1015.34 1015.71 1016.13 1016.56 1016.94 1017.24 1017.45 1017.57 1017.66 1017.75
1009.18 1009.09 1009.13 1009.33 1009.64 1009.99 1010.31 1010.54 1010.68 1010.74 1010.76 1010.80 1010.91 1011.10 1011.36 1011.66 1011.94 1012.19 1012.37 1012.51 1012.65 1012.82 1013.05 1013.35 1013.70 1014.07 1014.40 1014.67 1014.84 1014.95 1015.03 1015.14 1015.33 1015.61 1016.00 1016.44 1016.89 1017.29 1017.59 1017.79 1017.90 1017.98 1018.07
1009.18 1009.15 1009.27 1009.55 1009.93 1010.34 1010.71 1011.00 1011.19 1011.31 1011.39 1011.48 1011.62 1011.83 1012.08 1012.34 1012.58 1012.78 1012.93 1013.07 1013.22 1013.41 1013.68 1014.01 1014.38 1014.72 1015.00 1015.19 1015.27 1015.29 1015.30 1015.36 1015.52 1015.82 1016.23 1016.71 1017.18 1017.60 1017.91 1018.10 1018.20 1018.27 1018.36
1009.25 1009.29 1009.49 1009.83 1010.26 1010.71 1011.11 1011.42 1011.63 1011.77 1011.88 1012.00 1012.17 1012.39 1012.64 1012.90 1013.13 1013.32 1013.48 1013.63 1013.80 1014.03 1014.33 1014.67 1015.01 1015.31 1015.51 1015.60 1015.59 1015.52 1015.46 1015.49 1015.65 1015.97 1016.42 1016.94 1017.45 1017.89 1018.21 1018.39 1018.48 1018.52 1018.60
1009.40 1009.52 1009.79 1010.19 1010.65 1011.11 1011.50 1011.79 1011.98 1012.11 1012.22 1012.36 1012.55 1012.79 1013.06 1013.33 1013.58 1013.79 1013.97 1014.14 1014.34 1014.59 1014.89 1015.21 1015.51 1015.74 1015.85 1015.85 1015.75 1015.62 1015.52 1015.54 1015.72 1016.09 1016.59 1017.16 1017.72 1018.19 1018.51 1018.69 1018.75 1018.77 1018.81
1009.62 1009.82 1010.16 1010.59 1011.06 1011.49 1011.84 1012.08 1012.24 1012.33 1012.43 1012.57 1012.77 1013.04 1013.34 1013.64 1013.92 1014.16 1014.36 1014.55 1014.76 1015.00 1015.28 1015.56 1015.80 1015.96 1016.00 1015.92 1015.77 1015.60 1015.50 1015.54 1015.77 1016.19 1016.76 1017.39 1018.00 1018.49 1018.82 1018.99 1019.02 1019.01 1019.02
1009.88 1010.14 1010.53 1010.98 1011.43 1011.82 1012.11 1012.28 1012.37 1012.43 1012.51 1012.65 1012.86 1013.16 1013.49 1013.83 1014.14 1014.40 1014.62 1014.81 1015.01 1015.23 1015.47 1015.69 1015.88 1015.97 1015.96 1015.85 1015.68 1015.52 1015.45 1015.54 1015.83 1016.31 1016.94 1017.62 1018.26 1018.78 1019.12 1019.28 1019.30 1019.26 1019.23
1010.13 1010.45 1010.86 1011.31 1011.72 1012.05 1012.26 1012.37 1012.40 1012.41 1012.47 1012.61 1012.85 1013.17 1013.54 1013.91 1014.25 1014.52 1014.74 1014.93 1015.10 1015.28 1015.47 1015.65 1015.78 1015.84 1015.81 1015.70 1015.55 1015.42 1015.41 1015.55 1015.90 1016.44 1017.11 1017.83 1018.49 1019.02 1019.38 1019.54 1019.56 1019.50 1019.44
1010.34 1010.69 1011.11 1011.54 1011.90 1012.17 1012.31 1012.34 1012.32 1012.31 1012.36 1012.51 1012.77 1013.12 1013.52 1013.92 1014.27 1014.55 1014.76 1014.92 1015.06 1015.20 1015.35 1015.49 1015.60 1015.65 1015.63 1015.55 1015.44 1015.38 1015.42 1015.61 1016.00 1016.56 1017.24 1017.96 1018.63 1019.17 1019.53 1019.71 1019.75 1019.70 1019.65
1010.51 1010.86 1011.27 1011.66 1011.97 1012.17 1012.25 1012.24 1012.19 1012.16 1012.21 1012.38 1012.67 1013.05 1013.47 1013.88 1014.24 1014.52 1014.71 1014.85 1014.96 1015.07 1015.19 1015.31 1015.42 1015.49 1015.51 1015.48 1015.43 1015.42 1015.50 1015.72 1016.10 1016.64 1017.29 1017.97 1018.61 1019.15 1019.53 1019.75 1019.83 1019.83 1019.81
1010.61 1010.96 1011.34 1011.69 1011.95 1012.10 1012.14 1012.10 1012.04 1012.02 1012.09 1012.28 1012.59 1012.99 1013.42 1013.83 1014.19 1014.45 1014.64 1014.76 1014.86 1014.95 1015.07 1015.20 1015.33 1015.43 1015.50 1015.52 1015.53 1015.55 1015.65 1015.85 1016.18 1016.65 1017.22 1017.83 1018.42 1018.94 1019.33 1019.60 1019.75 1019.82 1019.87
1010.68 1011.01 1011.35 1011.66 1011.88 1012.00 1012.02 1011.98 1011.93 1011.93 1012.03 1012.24 1012.56 1012.96 1013.38 1013.79 1014.13 1014.38 1014.56 1014.68 1014.78 1014.89 1015.02 1015.18 1015.34 1015.49 1015.61 1015.68 1015.72 1015.76 1015.83 1015.98 1016.22 1016.58 1017.03 1017.54 1018.05 1018.53 1018.93 1019.25 1019.49 1019.66 1019.81
1010.72 1011.02 1011.33 1011.60 1011.79 1011.90 1011.93 1011.92 1011.90 1011.93 1012.04 1012.27 1012.58 1012.96 1013.37 1013.74 1014.06 1014.31 1014.49 1014.62 1014.74 1014.88 1015.04 1015.24 1015.45 1015.64 1015.80 1015.91 1015.96 1015.99 1016.02 1016.08 1016.21 1016.44 1016.75 1017.13 1017.55 1017.98 1018.39 1018.75 1019.07 1019.35 1019.60
1010.72 1011.00 1011.29 1011.53 1011.72 1011.84 1011.90 1011.92 1011.94 1012.01 1012.14 1012.36 1012.65 1012.99 1013.35 1013.69 1013.98 1014.21 1014.39 1014.55 1014.70 1014.88 1015.09 1015.33 1015.58 1015.82 1016.01 1016.13 1016.19 1016.19 1016.17 1016.14 1016.17 1016.26 1016.43 1016.69 1017.01 1017.38 1017.77 1018.17 1018.55 1018.92 1019.26
1010.67 1010.95 1011.22 1011.46 1011.66 1011.81 1011.91 1011.99 1012.06 1012.16 1012.30 1012.50 1012.75 1013.03 1013.32 1013.60 1013.85 1014.07 1014.26 1014.44 1014.64 1014.86 1015.11 1015.39 1015.68 1015.94 1016.15 1016.29 1016.35 1016.33 1016.26 1016.18 1016.11 1016.09 1016.15 1016.30 1016.53 1016.84 1017.20 1017.60 1018.02 1018.44 1018.84
1010.53 1010.83 1011.11 1011.37 1011.60 1011.79 1011.96 1012.09 1012.21 1012.34 1012.48 1012.65 1012.84 1013.05 1013.27 1013.48 1013.68 1013.88 1014.07 1014.28 1014.51 1014.77 1015.07 1015.38 1015.69 1015.97 1016.19 1016.34 1016.40 1016.38 1016.30 1016.18 1016.07 1015.99 1015.98 1016.05 1016.21 1016.45 1016.77 1017.14 1017.55 1017.98 1018.40
1010.27 1010.60 1010.91 1011.21 1011.49 1011.74 1011.98 1012.18 1012.36 1012.52 1012.66 1012.79 1012.92 1013.05 1013.18 1013.32 1013.47 1013.64 1013.84 1014.06 1014.32 1014.61 1014.93 1015.26 1015.58 1015.86 1016.09 1016.25 1016.33 1016.33 1016.28 1016.18 1016.07 1015.98 1015.95 1015.98 1016.08 1016.28 1016.54 1016.86 1017.23 1017.62 1018.01
1009.86 1010.24 1010.60 1010.94 1011.29 1011.62 1011.93 1012.22 1012.46 1012.65 1012.80 1012.90 1012.97 1013.02 1013.07 1013.14 1013.24 1013.38 1013.57 1013.80 1014.07 1014.38 1014.71 1015.04 1015.35 1015.63 1015.86 1016.04 1016.15 1016.19 1016.19 1016.15 1016.10 1016.06 1016.04 1016.07 1016.16 1016.32 1016.53 1016.79 1017.09 1017.41 1017.73
1009.29 1009.72 1010.14 1010.55 1010.96 1011.38 1011.78 1012.15 1012.46 1012.70 1012.86 1012.94 1012.96 1012.96 1012.94 1012.95 1013.01 1013.12 1013.30 1013.53 1013.80 1014.11 1014.43 1014.74 1015.03 1015.30 1015.52 1015.71 1015.85 1015.95 1016.03 1016.08 1016.12 1016.15 1016.20 1016.28 1016.38 1016.52 1016.70 1016.91 1017.13 1017.37 1017.61
1008.57 1009.07 1009.54 1010.01 1010.50 1011.00 1011.49 1011.94 1012.32 1012.62 1012.81 1012.90 1012.90 1012.86 1012.81 1012.77 1012.79 1012.88 1013.04 1013.27 1013.53 1013.82 1014.12 1014.40 1014.65 1014.89 1015.09 1015.28 1015.45 1015.61 1015.76 1015.90 1016.05 1016.19 1016.33 1016.48 1016.63 1016.80 1016.97 1017.14 1017.32 1017.49 1017.65
1007.77 1008.31 1008.83 1009.36 1009.91 1010.48 1011.06 1011.59 1012.06 1012.42 1012.65 1012.76 1012.77 1012.72 1012.65 1012.60 1012.60 1012.67 1012.82 1013.03 1013.27 1013.54 1013.79 1014.03 1014.24 1014.43 1014.60 1014.77 1014.94 1015.14 1015.35 1015.58 1015.82 1016.07 1016.32 1016.56 1016.80 1017.02 1017.23 1017.42 1017.58 1017.72 1017.84
1006.97 1007.53 1008.08 1008.64 1009.24 1009.87 1010.52 1011.13 1011.66 1012.09 1012.38 1012.53 1012.57 1012.53 1012.46 1012.40 1012.40 1012.46 1012.60 1012.79 1013.02 1013.25 1013.47 1013.65 1013.80 1013.93 1014.05 1014.18 1014.34 1014.54 1014.78 1015.06 1015.38 1015.72 1016.08 1016.43 1016.77 1017.09 1017.39 1017.64 1017.86 1018.02 1018.14
Thickness
5783 5782 5780 5781 5782 5782 5782 5782 5782 5782 5782 5781 5780 5780 5779 5779 5779 5778 5777 5777 5776 5775 5774 5773 5772 5771 5770 5769 5767 5766 5765 5764 5763 5761 5760 5758 5757 5756 5755 5753 5752 5750 5748
5785 5782 5780 5781 5781 5781 5781 5781 5780 5780 5780 5779 5778 5777 5777 5776 5776 5775 5775 5775 5774 5773 5772 5771 5770 5769 5768 5767 5766 5764 5763 5762 5761 5760 5758 5756 5754 5754 5753 5752 5751 5748 5747
5787 5783 5780 5780 5780 5780 5779 5779 5778 5778 5778 5777 5776 5775 5775 5774 5774 5773 5772 5772 5772 5771 5770 5769 5768 5767 5766 5765 5764 5763 5762 5761 5759 5758 5757 5755 5753 5752 5751 5750 5748 5746 5745
5789 5784 5781 5779 5779 5778 5778 5777 5776 5775 5775 5775 5774 5773 5773 5772 5772 5771 5771 5770 5770 5769 5768 5767 5766 5765 5765 5764 5763 5762 5761 5760 5759 5757 5756 5754 5753 5750 5749 5748 5746 5744 5743
5790 5784 5779 5778 5778 5777 5776 5775 5774 5773 5773 5772 5772 5771 5771 5770 5770 5769 5769 5768 5768 5767 5766 5765 5765 5764 5763 5762 5762 5761 5760 5759 5758 5757 5756 5753 5751 5749 5747 5746 5744 5743 5740
5791 5785 5779 5778 5778 5777 5775 5774 5772 5771 5771 5770 5770 5769 5769 5768 5768 5767 5767 5766 5766 5765 5764 5763 5763 5762 5761 5761 5761 5760 5760 5759 5758 5758 5756 5753 5750 5748 5746 5745 5743 5741 5739
5792 5786 5780 5778 5777 5776 5774 5773 5771 5770 5769 5769 5768 5767 5767 5766 5766 5765 5764 5764 5764 5763 5762 5761 5761 5760 5760 5760 5760 5760 5759 5759 5759 5759 5756 5753 5749 5747 5746 5744 5742 5740 5738
5794 5787 5781 5778 5777 5776 5773 5772 5770 5769 5768 5768 5767 5766 5765 5765 5764 5763 5763 5763 5762 5762 5761 5760 5760 5759 5759 5759 5759 5759 5759 5759 5761 5760 5757 5752 5749 5746 5745 5743 5741 5739 5738
5797 5791 5784 5779 5776 5774 5772 5771 5770 5769 5768 5767 5766 5765 5764 5764 5763 5763 5762 5761 5761 5761 5760 5760 5759 5759 5758 5758 5759 5759 5759 5760 5760 5759 5757 5752 5749 5746 5744 5742 5741 5739 5737
5799 5793 5788 5783 5779 5776 5772 5771 5770 5768 5767 5766 5765 5764 5764 5764 5763 5762 5761 5760 5760 5760 5760 5759 5759 5758 5758 5758 5759 5759 5760 5761 5761 5760 5756 5752 5750 5747 5745 5742 5741 5739 5738
5796 5794 5791 5786 5782 5779 5776 5772 5770 5768 5767 5765 5765 5764 5763 5763 5763 5761 5761 5760 5759 5760 5760 5759 5759 5759 5758 5759 5759 5760 5760 5762 5762 5760 5757 5753 5751 5748 5745 5743 5741 5739 5738
5793 5794 5793 5789 5786 5783 5779 5774 5772 5770 5768 5767 5766 5765 5764 5764 5764 5762 5761 5760 5760 5760 5760 5760 5760 5759 5759 5759 5760 5760 5761 5763 5763 5760 5756 5754 5751 5749 5746 5743 5741 5740 5738
5796 5795 5793 5789 5787 5784 5780 5777 5775 5772 5769 5768 5767 5766 5765 5765 5764 5763 5761 5761 5761 5761 5761 5761 5761 5761 5762 5762 5763 5763 5764 5765 5763 5760 5756 5754 5752 5749 5747 5744 5742 5740 5739
5797 5795 5794 5790 5786 5784 5781 5779 5776 5773 5771 5769 5767 5767 5766 5765 5764 5764 5763 5763 5763 5763 5763 5763 5763 5763 5764 5765 5765 5765 5766 5765 5763 5760 5756 5754 5752 5750 5747 5745 5743 5741 5739
5798 5795 5794 5791 5787 5784 5782 5780 5778 5775 5773 5770 5768 5767 5766 5765 5764 5764 5763 5764 5764 5764 5764 5764 5764 5765 5765 5765 5766 5766 5766 5765 5763 5761 5757 5755 5752 5750 5748 5746 5744 5742 5740
5800 5797 5795 5792 5788 5785 5782 5780 5779 5777 5774 5772 5770 5768 5767 5766 5765 5764 5763 5764 5764 5764 5764 5764 5764 5765 5764 5765 5765 5766 5766 5765 5764 5761 5758 5755 5753 5751 5749 5747 5745 5743 5741
5803 5800 5796 5794 5790 5786 5784 5782 5781 5779 5776 5774 5771 5769 5768 5767 5766 5765 5764 5764 5764 5765 5765 5765 5765 5765 5764 5764 5764 5765 5765 5765 5764 5762 5759 5756 5754 5752 5750 5749 5747 5745 5743
5806 5801 5798 5797 5791 5788 5786 5784 5783 5781 5778 5776 5773 5770 5769 5768 5767 5766 5766 5765 5765 5766 5766 5766 5764 5763 5763 5762 5762 5764 5764 5764 5764 5762 5761 5758 5756 5754 5752 5750 5748 5746 5745
5809 5804 5799 5797 5793 5790 5787 5785 5784 5782 5779 5777 5775 5773 5771 5770 5769 5768 5767 5766 5766 5767 5767 5767 5765 5764 5761 5761 5761 5762 5763 5763 5763 5763 5762 5760 5758 5756 5754 5751 5749 5748 5746
5812 5806 5801 5798 5794 5792 5789 5786 5784 5783 5781 5779 5776 5773 5772 5770 5769 5769 5767 5767 5767 5766 5766 5766 5764 5764 5763 5762 5762 5762 5762 5763 5763 5762 5761 5760 5759 5757 5755 5754 5751 5748 5746
5814 5808 5803 5798 5795 5793 5789 5785 5782 5780 5781 5779 5778 5775 5773 5772 5771 5770 5769 5768 5767 5765 5765 5765 5764 5762 5762 5763 5759 5756 5759 5762 5762 5761 5761 5760 5759 5758 5756 5754 5752 5750 5747
5815 5810 5805 5801 5798 5795 5791 5789 5786 5784 5783 5782 5780 5777 5775 5773 5772 5772 5769 5768 5767 5766 5765 5765 5763 5761 5762 5763 5757 5751 5747 5750 5755 5760 5759 5758 5758 5757 5756 5755 5752 5750 5748
5818 5813 5809 5804 5801 5798 5795 5792 5789 5786 5783 5780 5778 5777 5777 5775 5774 5772 5771 5769 5768 5767 5764 5764 5764 5761 5758 5761 5761 5754 5745 5740 5746 5753 5756 5756 5756 5755 5755 5754 5752 5749 5747
5823 5819 5814 5808 5804 5800 5797 5793 5787 5782 5778 5779 5779 5778 5778 5777 5775 5774 5772 5770 5768 5768 5766 5765 5765 5763 5760 5756 5759 5760 5758 5753 5745 5742 5748 5753 5754 5753 5752 5753 5751 5748 5746
5829 5823 5817 5811 5806 5802 5799 5795 5789 5785 5783 5782 5781 5779 5777 5777 5776 5775 5773 5771 5769 5768 5767 5766 5765 5763 5761 5758 5757 5758 5757 5756 5754 5746 5741 5745 5748 5750 5750 5750 5748 5746 5744
5832 5826 5820 5812 5806 5803 5799 5795 5790 5786 5784 5781 5778 5777 5777 5777 5776 5775 5774 5772 5770 5769 5767 5766 5765 5763 5761 5760 5759 5758 5756 5753 5751 5749 5743 5742 5741 5744 5747 5747 5745 5743 5741